Year,Month,Day,Hour,Minute,Value (Times are PST for temperature in C)
2018,09,17,00,00,9.70
2018,09,17,00,01,9.70
2018,09,17,00,02,9.70
2018,09,17,00,03,9.70
2018,09,17,00,04,9.60
2018,09,17,00,05,9.60
2018,09,17,00,06,9.60
2018,09,17,00,07,9.50
2018,09,17,00,08,9.40
2018,09,17,00,09,9.30
2018,09,17,00,10,9.30
2018,09,17,00,11,9.20
2018,09,17,00,12,9.10
2018,09,17,00,13,9.10
2018,09,17,00,14,9.00
2018,09,17,00,15,8.90
2018,09,17,00,16,8.80
2018,09,17,00,17,8.80
2018,09,17,00,18,8.80
2018,09,17,00,19,8.90
2018,09,17,00,20,9.00
2018,09,17,00,21,9.10
2018,09,17,00,22,9.00
2018,09,17,00,23,9.00
2018,09,17,00,24,8.90
2018,09,17,00,25,8.90
2018,09,17,00,26,8.80
2018,09,17,00,27,8.80
2018,09,17,00,28,8.80
2018,09,17,00,29,8.70
2018,09,17,00,30,8.60
2018,09,17,00,31,8.60
2018,09,17,00,32,8.50
2018,09,17,00,33,8.40
2018,09,17,00,34,8.40
2018,09,17,00,35,8.30
2018,09,17,00,36,8.30
2018,09,17,00,37,8.30
2018,09,17,00,38,8.30
2018,09,17,00,39,8.30
2018,09,17,00,40,8.30
2018,09,17,00,41,8.30
2018,09,17,00,42,8.30
2018,09,17,00,43,8.30
2018,09,17,00,44,8.30
2018,09,17,00,45,8.30
2018,09,17,00,46,8.40
2018,09,17,00,47,8.40
2018,09,17,00,48,8.40
2018,09,17,00,49,8.40
2018,09,17,00,50,8.30
2018,09,17,00,51,8.30
2018,09,17,00,52,8.30
2018,09,17,00,53,8.30
2018,09,17,00,54,8.30
2018,09,17,00,55,8.20
2018,09,17,00,56,8.20
2018,09,17,00,57,8.20
2018,09,17,00,58,8.10
2018,09,17,00,59,8.10
2018,09,17,01,00,8.10
2018,09,17,01,01,8.00
2018,09,17,01,02,8.00
2018,09,17,01,03,7.90
2018,09,17,01,04,7.90
2018,09,17,01,05,7.90
2018,09,17,01,06,7.80
2018,09,17,01,07,7.80
2018,09,17,01,08,7.80
2018,09,17,01,09,7.70
2018,09,17,01,10,7.70
2018,09,17,01,11,7.70
2018,09,17,01,12,7.70
2018,09,17,01,13,7.70
2018,09,17,01,14,7.60
2018,09,17,01,15,7.60
2018,09,17,01,16,7.60
2018,09,17,01,17,7.60
2018,09,17,01,18,7.60
2018,09,17,01,19,7.60
2018,09,17,01,20,7.60
2018,09,17,01,21,7.60
2018,09,17,01,22,7.70
2018,09,17,01,23,7.70
2018,09,17,01,24,7.70
2018,09,17,01,25,7.80
2018,09,17,01,26,7.80
2018,09,17,01,27,7.80
2018,09,17,01,28,7.70
2018,09,17,01,29,7.70
2018,09,17,01,30,7.70
2018,09,17,01,31,7.70
2018,09,17,01,32,7.70
2018,09,17,01,33,7.70
2018,09,17,01,34,7.70
2018,09,17,01,35,7.80
2018,09,17,01,36,7.90
2018,09,17,01,37,8.00
2018,09,17,01,38,8.10
2018,09,17,01,39,8.30
2018,09,17,01,40,8.40
2018,09,17,01,41,8.60
2018,09,17,01,42,8.70
2018,09,17,01,43,8.90
2018,09,17,01,44,9.10
2018,09,17,01,45,9.30
2018,09,17,01,46,9.40
2018,09,17,01,47,9.50
2018,09,17,01,48,9.60
2018,09,17,01,49,9.60
2018,09,17,01,50,9.70
2018,09,17,01,51,9.70
2018,09,17,01,52,9.70
2018,09,17,01,53,9.70
2018,09,17,01,54,9.60
2018,09,17,01,55,9.60
2018,09,17,01,56,9.50
2018,09,17,01,57,9.50
2018,09,17,01,58,9.40
2018,09,17,01,59,9.40
2018,09,17,02,00,9.30
2018,09,17,02,01,9.20
2018,09,17,02,02,9.20
2018,09,17,02,03,9.10
2018,09,17,02,04,8.90
2018,09,17,02,05,8.90
2018,09,17,02,06,8.80
2018,09,17,02,07,8.70
2018,09,17,02,08,8.60
2018,09,17,02,09,8.50
2018,09,17,02,10,8.40
2018,09,17,02,11,8.30
2018,09,17,02,12,8.30
2018,09,17,02,13,8.20
2018,09,17,02,14,8.10
2018,09,17,02,15,8.00
2018,09,17,02,16,8.00
2018,09,17,02,17,7.90
2018,09,17,02,18,7.80
2018,09,17,02,19,7.80
2018,09,17,02,20,7.80
2018,09,17,02,21,7.70
2018,09,17,02,22,7.70
2018,09,17,02,23,7.60
2018,09,17,02,24,7.50
2018,09,17,02,25,7.50
2018,09,17,02,26,7.40
2018,09,17,02,27,7.40
2018,09,17,02,28,7.40
2018,09,17,02,29,7.30
2018,09,17,02,30,7.30
2018,09,17,02,31,7.30
2018,09,17,02,32,7.20
2018,09,17,02,33,7.20
2018,09,17,02,34,7.20
2018,09,17,02,35,7.20
2018,09,17,02,36,7.20
2018,09,17,02,37,7.20
2018,09,17,02,38,7.10
2018,09,17,02,39,7.10
2018,09,17,02,40,7.10
2018,09,17,02,41,7.10
2018,09,17,02,42,7.00
2018,09,17,02,43,7.00
2018,09,17,02,44,7.00
2018,09,17,02,45,6.90
2018,09,17,02,46,6.90
2018,09,17,02,47,6.90
2018,09,17,02,48,6.90
2018,09,17,02,49,6.90
2018,09,17,02,50,6.80
2018,09,17,02,51,6.80
2018,09,17,02,52,6.80
2018,09,17,02,53,6.80
2018,09,17,02,54,6.80
2018,09,17,02,55,6.70
2018,09,17,02,56,6.70
2018,09,17,02,57,6.70
2018,09,17,02,58,6.70
2018,09,17,02,59,6.60
2018,09,17,03,00,6.60
2018,09,17,03,01,6.60
2018,09,17,03,02,6.50
2018,09,17,03,03,6.50
2018,09,17,03,04,6.50
2018,09,17,03,05,6.50
2018,09,17,03,06,6.40
2018,09,17,03,07,6.40
2018,09,17,03,08,6.40
2018,09,17,03,09,6.40
2018,09,17,03,10,6.30
2018,09,17,03,11,6.30
2018,09,17,03,12,6.30
2018,09,17,03,13,6.30
2018,09,17,03,14,6.30
2018,09,17,03,15,6.20
2018,09,17,03,16,6.20
2018,09,17,03,17,6.20
2018,09,17,03,18,6.20
2018,09,17,03,19,6.20
2018,09,17,03,20,6.10
2018,09,17,03,21,6.10
2018,09,17,03,22,6.10
2018,09,17,03,23,6.10
2018,09,17,03,24,6.00
2018,09,17,03,25,6.00
2018,09,17,03,26,6.00
2018,09,17,03,27,5.90
2018,09,17,03,28,5.90
2018,09,17,03,29,5.90
2018,09,17,03,30,5.90
2018,09,17,03,31,5.90
2018,09,17,03,32,5.80
2018,09,17,03,33,5.80
2018,09,17,03,34,5.80
2018,09,17,03,35,5.80
2018,09,17,03,36,5.70
2018,09,17,03,37,5.70
2018,09,17,03,38,5.70
2018,09,17,03,39,5.70
2018,09,17,03,40,5.70
2018,09,17,03,41,5.60
2018,09,17,03,42,5.60
2018,09,17,03,43,5.60
2018,09,17,03,44,5.60
2018,09,17,03,45,5.50
2018,09,17,03,46,5.50
2018,09,17,03,47,5.50
2018,09,17,03,48,5.40
2018,09,17,03,49,5.50
2018,09,17,03,50,5.50
2018,09,17,03,51,5.50
2018,09,17,03,52,5.50
2018,09,17,03,53,5.50
2018,09,17,03,54,5.60
2018,09,17,03,55,5.60
2018,09,17,03,56,5.60
2018,09,17,03,57,5.70
2018,09,17,03,58,5.80
2018,09,17,03,59,5.80
2018,09,17,04,00,5.90
2018,09,17,04,01,6.00
2018,09,17,04,02,6.20
2018,09,17,04,03,6.40
2018,09,17,04,04,6.50
2018,09,17,04,05,6.70
2018,09,17,04,06,6.80
2018,09,17,04,07,6.90
2018,09,17,04,08,7.00
2018,09,17,04,09,7.10
2018,09,17,04,10,7.20
2018,09,17,04,11,7.30
2018,09,17,04,12,7.30
2018,09,17,04,13,7.40
2018,09,17,04,14,7.40
2018,09,17,04,15,7.40
2018,09,17,04,16,7.40
2018,09,17,04,17,7.30
2018,09,17,04,18,7.20
2018,09,17,04,19,7.20
2018,09,17,04,20,7.10
2018,09,17,04,21,7.10
2018,09,17,04,22,7.00
2018,09,17,04,23,7.00
2018,09,17,04,24,6.90
2018,09,17,04,25,6.90
2018,09,17,04,26,6.90
2018,09,17,04,27,6.90
2018,09,17,04,28,6.80
2018,09,17,04,29,6.80
2018,09,17,04,30,6.80
2018,09,17,04,31,6.70
2018,09,17,04,32,6.70
2018,09,17,04,33,6.60
2018,09,17,04,34,6.60
2018,09,17,04,35,6.50
2018,09,17,04,36,6.50
2018,09,17,04,37,6.50
2018,09,17,04,38,6.40
2018,09,17,04,39,6.40
2018,09,17,04,40,6.30
2018,09,17,04,41,6.30
2018,09,17,04,42,6.30
2018,09,17,04,43,6.30
2018,09,17,04,44,6.20
2018,09,17,04,45,6.20
2018,09,17,04,46,6.20
2018,09,17,04,47,6.10
2018,09,17,04,48,6.10
2018,09,17,04,49,6.10
2018,09,17,04,50,6.00
2018,09,17,04,51,6.00
2018,09,17,04,52,5.90
2018,09,17,04,53,5.90
2018,09,17,04,54,5.90
2018,09,17,04,55,5.80
2018,09,17,04,56,5.80
2018,09,17,04,57,5.80
2018,09,17,04,58,5.70
2018,09,17,04,59,5.70
2018,09,17,05,00,5.70
2018,09,17,05,01,5.60
2018,09,17,05,02,5.60
2018,09,17,05,03,5.60
2018,09,17,05,04,5.60
2018,09,17,05,05,5.50
2018,09,17,05,06,5.50
2018,09,17,05,07,5.50
2018,09,17,05,08,5.40
2018,09,17,05,09,5.40
2018,09,17,05,10,5.40
2018,09,17,05,11,5.40
2018,09,17,05,12,5.30
2018,09,17,05,13,5.30
2018,09,17,05,14,5.30
2018,09,17,05,15,5.30
2018,09,17,05,16,5.20
2018,09,17,05,17,5.20
2018,09,17,05,18,5.20
2018,09,17,05,19,5.10
2018,09,17,05,20,5.10
2018,09,17,05,21,5.10
2018,09,17,05,22,5.10
2018,09,17,05,23,5.10
2018,09,17,05,24,5.00
2018,09,17,05,25,5.00
2018,09,17,05,26,5.00
2018,09,17,05,27,4.90
2018,09,17,05,28,4.90
2018,09,17,05,29,4.90
2018,09,17,05,30,4.90
2018,09,17,05,31,4.90
2018,09,17,05,32,4.80
2018,09,17,05,33,4.80
2018,09,17,05,34,4.80
2018,09,17,05,35,4.80
2018,09,17,05,36,4.70
2018,09,17,05,37,4.70
2018,09,17,05,38,4.70
2018,09,17,05,39,4.70
2018,09,17,05,40,4.70
2018,09,17,05,41,4.70
2018,09,17,05,42,4.70
2018,09,17,05,43,4.70
2018,09,17,05,44,4.70
2018,09,17,05,45,4.70
2018,09,17,05,46,4.70
2018,09,17,05,47,4.70
2018,09,17,05,48,4.60
2018,09,17,05,49,4.60
2018,09,17,05,50,4.60
2018,09,17,05,51,4.60
2018,09,17,05,52,4.60
2018,09,17,05,53,4.60
2018,09,17,05,54,4.50
2018,09,17,05,55,4.50
2018,09,17,05,56,4.50
2018,09,17,05,57,4.50
2018,09,17,05,58,4.40
2018,09,17,05,59,4.40
2018,09,17,06,00,4.40
2018,09,17,06,01,4.40
2018,09,17,06,02,4.40
2018,09,17,06,03,4.40
2018,09,17,06,04,4.30
2018,09,17,06,05,4.30
2018,09,17,06,06,4.30
2018,09,17,06,07,4.30
2018,09,17,06,08,4.30
2018,09,17,06,09,4.30
2018,09,17,06,10,4.30
2018,09,17,06,11,4.30
2018,09,17,06,12,4.30
2018,09,17,06,13,4.30
2018,09,17,06,14,4.30
2018,09,17,06,15,4.30
2018,09,17,06,16,4.30
2018,09,17,06,17,4.30
2018,09,17,06,18,4.20
2018,09,17,06,19,4.20
2018,09,17,06,20,4.20
2018,09,17,06,21,4.20
2018,09,17,06,22,4.20
2018,09,17,06,23,4.20
2018,09,17,06,24,4.20
2018,09,17,06,25,4.20
2018,09,17,06,26,4.20
2018,09,17,06,27,4.20
2018,09,17,06,28,4.20
2018,09,17,06,29,4.20
2018,09,17,06,30,4.20
2018,09,17,06,31,4.20
2018,09,17,06,32,4.20
2018,09,17,06,33,4.10
2018,09,17,06,34,4.10
2018,09,17,06,35,4.10
2018,09,17,06,36,4.10
2018,09,17,06,37,4.10
2018,09,17,06,38,4.10
2018,09,17,06,39,4.10
2018,09,17,06,40,4.10
2018,09,17,06,41,4.10
2018,09,17,06,42,4.10
2018,09,17,06,43,4.10
2018,09,17,06,44,4.10
2018,09,17,06,45,4.00
2018,09,17,06,46,4.00
2018,09,17,06,47,4.00
2018,09,17,06,48,4.00
2018,09,17,06,49,4.00
2018,09,17,06,50,4.00
2018,09,17,06,51,4.00
2018,09,17,06,52,4.00
2018,09,17,06,53,3.90
2018,09,17,06,54,3.90
2018,09,17,06,55,3.90
2018,09,17,06,56,3.90
2018,09,17,06,57,3.90
2018,09,17,06,58,3.90
2018,09,17,06,59,3.90
2018,09,17,07,00,3.90
2018,09,17,07,01,3.90
2018,09,17,07,02,3.90
2018,09,17,07,03,3.90
2018,09,17,07,04,3.90
2018,09,17,07,05,3.90
2018,09,17,07,06,3.90
2018,09,17,07,07,3.90
2018,09,17,07,08,3.90
2018,09,17,07,09,3.90
2018,09,17,07,10,3.90
2018,09,17,07,11,3.80
2018,09,17,07,12,3.90
2018,09,17,07,13,3.90
2018,09,17,07,14,3.80
2018,09,17,07,15,3.90
2018,09,17,07,16,3.90
2018,09,17,07,17,3.80
2018,09,17,07,18,3.80
2018,09,17,07,19,3.80
2018,09,17,07,20,3.80
2018,09,17,07,21,3.80
2018,09,17,07,22,3.80
2018,09,17,07,23,3.80
2018,09,17,07,24,3.80
2018,09,17,07,25,3.80
2018,09,17,07,26,3.80
2018,09,17,07,27,3.80
2018,09,17,07,28,3.80
2018,09,17,07,29,3.80
2018,09,17,07,30,3.80
2018,09,17,07,31,3.80
2018,09,17,07,32,3.80
2018,09,17,07,33,3.80
2018,09,17,07,34,3.80
2018,09,17,07,35,3.80
2018,09,17,07,36,3.80
2018,09,17,07,37,3.80
2018,09,17,07,38,3.80
2018,09,17,07,39,3.80
2018,09,17,07,40,3.80
2018,09,17,07,41,3.80
2018,09,17,07,42,3.80
2018,09,17,07,43,3.80
2018,09,17,07,44,3.80
2018,09,17,07,45,3.90
2018,09,17,07,46,3.90
2018,09,17,07,47,3.90
2018,09,17,07,48,3.90
2018,09,17,07,49,3.90
2018,09,17,07,50,3.90
2018,09,17,07,51,3.90
2018,09,17,07,52,3.90
2018,09,17,07,53,3.90
2018,09,17,07,54,3.90
2018,09,17,07,55,3.90
2018,09,17,07,56,3.90
2018,09,17,07,57,3.90
2018,09,17,07,58,3.90
2018,09,17,07,59,3.90
2018,09,17,08,00,3.90
2018,09,17,08,01,3.90
2018,09,17,08,02,4.00
2018,09,17,08,03,4.00
2018,09,17,08,04,4.00
2018,09,17,08,05,4.00
2018,09,17,08,06,4.00
2018,09,17,08,07,4.00
2018,09,17,08,08,4.00
2018,09,17,08,09,4.00
2018,09,17,08,10,4.10
2018,09,17,08,11,4.10
2018,09,17,08,12,4.10
2018,09,17,08,13,4.10
2018,09,17,08,14,4.10
2018,09,17,08,15,4.10
2018,09,17,08,16,4.20
2018,09,17,08,17,4.20
2018,09,17,08,18,4.20
2018,09,17,08,19,4.30
2018,09,17,08,20,4.40
2018,09,17,08,21,4.50
2018,09,17,08,22,4.50
2018,09,17,08,23,4.60
2018,09,17,08,24,4.70
2018,09,17,08,25,4.80
2018,09,17,08,26,5.00
2018,09,17,08,27,5.10
2018,09,17,08,28,5.20
2018,09,17,08,29,5.40
2018,09,17,08,30,5.50
2018,09,17,08,31,5.70
2018,09,17,08,32,5.80
2018,09,17,08,33,5.90
2018,09,17,08,34,6.00
2018,09,17,08,35,6.00
2018,09,17,08,36,6.10
2018,09,17,08,37,6.20
2018,09,17,08,38,6.30
2018,09,17,08,39,6.40
2018,09,17,08,40,6.50
2018,09,17,08,41,6.60
2018,09,17,08,42,6.70
2018,09,17,08,43,6.90
2018,09,17,08,44,7.00
2018,09,17,08,45,7.20
2018,09,17,08,46,7.20
2018,09,17,08,47,7.40
2018,09,17,08,48,7.40
2018,09,17,08,49,7.50
2018,09,17,08,50,7.60
2018,09,17,08,51,7.70
2018,09,17,08,52,7.80
2018,09,17,08,53,7.80
2018,09,17,08,54,7.90
2018,09,17,08,55,8.00
2018,09,17,08,56,8.10
2018,09,17,08,57,8.20
2018,09,17,08,58,8.30
2018,09,17,08,59,8.40
2018,09,17,09,00,8.50
2018,09,17,09,01,8.60
2018,09,17,09,02,8.80
2018,09,17,09,03,8.90
2018,09,17,09,04,9.00
2018,09,17,09,05,9.20
2018,09,17,09,06,9.30
2018,09,17,09,07,9.40
2018,09,17,09,08,9.50
2018,09,17,09,09,9.70
2018,09,17,09,10,9.80
2018,09,17,09,11,10.00
2018,09,17,09,12,10.10
2018,09,17,09,13,10.20
2018,09,17,09,14,10.30
2018,09,17,09,15,10.30
2018,09,17,09,16,10.40
2018,09,17,09,17,10.50
2018,09,17,09,18,10.60
2018,09,17,09,19,10.70
2018,09,17,09,20,10.80
2018,09,17,09,21,10.90
2018,09,17,09,22,11.00
2018,09,17,09,23,11.10
2018,09,17,09,24,11.10
2018,09,17,09,25,11.20
2018,09,17,09,26,11.30
2018,09,17,09,27,11.30
2018,09,17,09,28,11.40
2018,09,17,09,29,11.50
2018,09,17,09,30,11.50
2018,09,17,09,31,11.60
2018,09,17,09,32,11.60
2018,09,17,09,33,11.70
2018,09,17,09,34,11.70
2018,09,17,09,35,11.70
2018,09,17,09,36,11.80
2018,09,17,09,37,11.80
2018,09,17,09,38,11.90
2018,09,17,09,39,11.90
2018,09,17,09,40,12.00
2018,09,17,09,41,12.10
2018,09,17,09,42,12.10
2018,09,17,09,43,12.20
2018,09,17,09,44,12.30
2018,09,17,09,45,12.30
2018,09,17,09,46,12.40
2018,09,17,09,47,12.40
2018,09,17,09,48,12.40
2018,09,17,09,49,12.40
2018,09,17,09,50,12.50
2018,09,17,09,51,12.40
2018,09,17,09,52,12.50
2018,09,17,09,53,12.50
2018,09,17,09,54,12.50
2018,09,17,09,55,12.50
2018,09,17,09,56,12.50
2018,09,17,09,57,12.60
2018,09,17,09,58,12.60
2018,09,17,09,59,12.70
2018,09,17,10,00,12.80
2018,09,17,10,01,12.90
2018,09,17,10,02,13.00
2018,09,17,10,03,13.10
2018,09,17,10,04,13.20
2018,09,17,10,05,13.20
2018,09,17,10,06,13.20
2018,09,17,10,07,13.20
2018,09,17,10,08,13.20
2018,09,17,10,09,13.20
2018,09,17,10,10,13.20
2018,09,17,10,11,13.20
2018,09,17,10,12,13.20
2018,09,17,10,13,13.20
2018,09,17,10,14,13.30
2018,09,17,10,15,13.30
2018,09,17,10,16,13.40
2018,09,17,10,17,13.40
2018,09,17,10,18,13.50
2018,09,17,10,19,13.60
2018,09,17,10,20,13.60
2018,09,17,10,21,13.70
2018,09,17,10,22,13.70
2018,09,17,10,23,13.70
2018,09,17,10,24,13.70
2018,09,17,10,25,13.70
2018,09,17,10,26,13.60
2018,09,17,10,27,13.60
2018,09,17,10,28,13.60
2018,09,17,10,29,13.60
2018,09,17,10,30,13.60
2018,09,17,10,31,13.60
2018,09,17,10,32,13.50
2018,09,17,10,33,13.40
2018,09,17,10,34,13.40
2018,09,17,10,35,13.30
2018,09,17,10,36,13.30
2018,09,17,10,37,13.20
2018,09,17,10,38,13.20
2018,09,17,10,39,13.20
2018,09,17,10,40,13.10
2018,09,17,10,41,13.00
2018,09,17,10,42,13.00
2018,09,17,10,43,12.90
2018,09,17,10,44,12.90
2018,09,17,10,45,12.90
2018,09,17,10,46,12.90
2018,09,17,10,47,12.90
2018,09,17,10,48,12.90
2018,09,17,10,49,12.90
2018,09,17,10,50,12.90
2018,09,17,10,51,12.90
2018,09,17,10,52,12.80
2018,09,17,10,53,12.80
2018,09,17,10,54,12.70
2018,09,17,10,55,12.70
2018,09,17,10,56,12.70
2018,09,17,10,57,12.70
2018,09,17,10,58,12.70
2018,09,17,10,59,12.70
2018,09,17,11,00,12.70
2018,09,17,11,01,12.70
2018,09,17,11,02,12.70
2018,09,17,11,03,12.70
2018,09,17,11,04,12.70
2018,09,17,11,05,12.70
2018,09,17,11,06,12.60
2018,09,17,11,07,12.60
2018,09,17,11,08,12.60
2018,09,17,11,09,12.60
2018,09,17,11,10,12.60
2018,09,17,11,11,12.60
2018,09,17,11,12,12.60
2018,09,17,11,13,12.60
2018,09,17,11,14,12.60
2018,09,17,11,15,12.50
2018,09,17,11,16,12.50
2018,09,17,11,17,12.40
2018,09,17,11,18,12.40
2018,09,17,11,19,12.40
2018,09,17,11,20,12.30
2018,09,17,11,21,12.30
2018,09,17,11,22,12.30
2018,09,17,11,23,12.30
2018,09,17,11,24,12.30
2018,09,17,11,25,12.30
2018,09,17,11,26,12.20
2018,09,17,11,27,12.20
2018,09,17,11,28,12.20
2018,09,17,11,29,12.20
2018,09,17,11,30,12.20
2018,09,17,11,31,12.20
2018,09,17,11,32,12.20
2018,09,17,11,33,12.20
2018,09,17,11,34,12.30
2018,09,17,11,35,12.30
2018,09,17,11,36,12.40
2018,09,17,11,37,12.40
2018,09,17,11,38,12.50
2018,09,17,11,39,12.60
2018,09,17,11,40,12.60
2018,09,17,11,41,12.70
2018,09,17,11,42,12.70
2018,09,17,11,43,12.80
2018,09,17,11,44,12.90
2018,09,17,11,45,13.00
2018,09,17,11,46,13.10
2018,09,17,11,47,13.20
2018,09,17,11,48,13.20
2018,09,17,11,49,13.30
2018,09,17,11,50,13.50
2018,09,17,11,51,13.60
2018,09,17,11,52,13.60
2018,09,17,11,53,13.70
2018,09,17,11,54,13.60
2018,09,17,11,55,13.60
2018,09,17,11,56,13.60
2018,09,17,11,57,13.60
2018,09,17,11,58,13.50
2018,09,17,11,59,13.60
2018,09,17,12,00,13.60
2018,09,17,12,01,13.60
2018,09,17,12,02,13.60
2018,09,17,12,03,13.70
2018,09,17,12,04,13.80
2018,09,17,12,05,13.80
2018,09,17,12,06,14.00
2018,09,17,12,07,14.10
2018,09,17,12,08,14.30
2018,09,17,12,09,14.50
2018,09,17,12,10,14.70
2018,09,17,12,11,14.80
2018,09,17,12,12,14.80
2018,09,17,12,13,14.70
2018,09,17,12,14,14.70
2018,09,17,12,15,14.70
2018,09,17,12,16,14.70
2018,09,17,12,17,14.70
2018,09,17,12,18,14.70
2018,09,17,12,19,14.70
2018,09,17,12,20,14.70
2018,09,17,12,21,14.70
2018,09,17,12,22,14.70
2018,09,17,12,23,14.70
2018,09,17,12,24,14.60
2018,09,17,12,25,14.60
2018,09,17,12,26,14.50
2018,09,17,12,27,14.40
2018,09,17,12,28,14.40
2018,09,17,12,29,14.30
2018,09,17,12,30,14.20
2018,09,17,12,31,14.10
2018,09,17,12,32,14.10
2018,09,17,12,33,14.00
2018,09,17,12,34,13.90
2018,09,17,12,35,13.80
2018,09,17,12,36,13.70
2018,09,17,12,37,13.70
2018,09,17,12,38,13.60
2018,09,17,12,39,13.60
2018,09,17,12,40,13.60
2018,09,17,12,41,13.50
2018,09,17,12,42,13.50
2018,09,17,12,43,13.50
2018,09,17,12,44,13.50
2018,09,17,12,45,13.50
2018,09,17,12,46,13.60
2018,09,17,12,47,13.60
2018,09,17,12,48,13.60
2018,09,17,12,49,13.60
2018,09,17,12,50,13.60
2018,09,17,12,51,13.60
2018,09,17,12,52,13.60
2018,09,17,12,53,13.60
2018,09,17,12,54,13.60
2018,09,17,12,55,13.60
2018,09,17,12,56,13.60
2018,09,17,12,57,13.60
2018,09,17,12,58,13.60
2018,09,17,12,59,13.60
2018,09,17,13,00,13.60
2018,09,17,13,01,13.50
2018,09,17,13,02,13.60
2018,09,17,13,03,13.60
2018,09,17,13,04,13.50
2018,09,17,13,05,13.50
2018,09,17,13,06,13.50
2018,09,17,13,07,13.50
2018,09,17,13,08,13.40
2018,09,17,13,09,13.40
2018,09,17,13,10,13.40
2018,09,17,13,11,13.40
2018,09,17,13,12,13.40
2018,09,17,13,13,13.40
2018,09,17,13,14,13.40
2018,09,17,13,15,13.40
2018,09,17,13,16,13.40
2018,09,17,13,17,13.40
2018,09,17,13,18,13.50
2018,09,17,13,19,13.50
2018,09,17,13,20,13.60
2018,09,17,13,21,13.60
2018,09,17,13,22,13.70
2018,09,17,13,23,13.70
2018,09,17,13,24,13.80
2018,09,17,13,25,13.80
2018,09,17,13,26,13.80
2018,09,17,13,27,13.80
2018,09,17,13,28,13.90
2018,09,17,13,29,13.90
2018,09,17,13,30,13.90
2018,09,17,13,31,13.90
2018,09,17,13,32,13.90
2018,09,17,13,33,14.00
2018,09,17,13,34,14.00
2018,09,17,13,35,14.00
2018,09,17,13,36,14.10
2018,09,17,13,37,14.10
2018,09,17,13,38,14.20
2018,09,17,13,39,14.20
2018,09,17,13,40,14.30
2018,09,17,13,41,14.40
2018,09,17,13,42,14.50
2018,09,17,13,43,14.50
2018,09,17,13,44,14.60
2018,09,17,13,45,14.60
2018,09,17,13,46,14.60
2018,09,17,13,47,14.70
2018,09,17,13,48,14.70
2018,09,17,13,49,14.60
2018,09,17,13,50,14.60
2018,09,17,13,51,14.60
2018,09,17,13,52,14.60
2018,09,17,13,53,14.60
2018,09,17,13,54,14.60
2018,09,17,13,55,14.60
2018,09,17,13,56,14.60
2018,09,17,13,57,14.50
2018,09,17,13,58,14.50
2018,09,17,13,59,14.50
2018,09,17,14,00,14.50
2018,09,17,14,01,14.50
2018,09,17,14,02,14.60
2018,09,17,14,03,14.60
2018,09,17,14,04,14.60
2018,09,17,14,05,14.60
2018,09,17,14,06,14.60
2018,09,17,14,07,14.60
2018,09,17,14,08,14.70
2018,09,17,14,09,14.70
2018,09,17,14,10,14.60
2018,09,17,14,11,14.60
2018,09,17,14,12,14.60
2018,09,17,14,13,14.60
2018,09,17,14,14,14.60
2018,09,17,14,15,14.70
2018,09,17,14,16,14.70
2018,09,17,14,17,14.80
2018,09,17,14,18,14.80
2018,09,17,14,19,14.80
2018,09,17,14,20,14.90
2018,09,17,14,21,15.00
2018,09,17,14,22,15.00
2018,09,17,14,23,15.00
2018,09,17,14,24,15.00
2018,09,17,14,25,14.90
2018,09,17,14,26,14.80
2018,09,17,14,27,14.70
2018,09,17,14,28,14.60
2018,09,17,14,29,14.60
2018,09,17,14,30,14.50
2018,09,17,14,31,14.50
2018,09,17,14,32,14.50
2018,09,17,14,33,14.50
2018,09,17,14,34,14.40
2018,09,17,14,35,14.40
2018,09,17,14,36,14.40
2018,09,17,14,37,14.40
2018,09,17,14,38,14.40
2018,09,17,14,39,14.40
2018,09,17,14,40,14.40
2018,09,17,14,41,14.40
2018,09,17,14,42,14.40
2018,09,17,14,43,14.30
2018,09,17,14,44,14.30
2018,09,17,14,45,14.30
2018,09,17,14,46,14.20
2018,09,17,14,47,14.20
2018,09,17,14,48,14.20
2018,09,17,14,49,14.10
2018,09,17,14,50,14.10
2018,09,17,14,51,14.10
2018,09,17,14,52,14.10
2018,09,17,14,53,14.00
2018,09,17,14,54,14.00
2018,09,17,14,55,14.00
2018,09,17,14,56,14.00
2018,09,17,14,57,14.00
2018,09,17,14,58,14.00
2018,09,17,14,59,14.00
2018,09,17,15,00,14.00
2018,09,17,15,01,14.00
2018,09,17,15,02,14.10
2018,09,17,15,03,14.10
2018,09,17,15,04,14.10
2018,09,17,15,05,14.10
2018,09,17,15,06,14.10
2018,09,17,15,07,14.10
2018,09,17,15,08,14.10
2018,09,17,15,09,14.10
2018,09,17,15,10,14.10
2018,09,17,15,11,14.10
2018,09,17,15,12,14.10
2018,09,17,15,13,14.10
2018,09,17,15,14,14.00
2018,09,17,15,15,14.00
2018,09,17,15,16,14.00
2018,09,17,15,17,13.90
2018,09,17,15,18,13.90
2018,09,17,15,19,13.90
2018,09,17,15,20,13.90
2018,09,17,15,21,13.90
2018,09,17,15,22,13.90
2018,09,17,15,23,14.00
2018,09,17,15,24,14.00
2018,09,17,15,25,14.10
2018,09,17,15,26,14.10
2018,09,17,15,27,14.10
2018,09,17,15,28,14.10
2018,09,17,15,29,14.10
2018,09,17,15,30,14.10
2018,09,17,15,31,14.10
2018,09,17,15,32,14.20
2018,09,17,15,33,14.20
2018,09,17,15,34,14.30
2018,09,17,15,35,14.30
2018,09,17,15,36,14.30
2018,09,17,15,37,14.40
2018,09,17,15,38,14.40
2018,09,17,15,39,14.40
2018,09,17,15,40,14.50
2018,09,17,15,41,14.60
2018,09,17,15,42,14.60
2018,09,17,15,43,14.60
2018,09,17,15,44,14.70
2018,09,17,15,45,14.70
2018,09,17,15,46,14.80
2018,09,17,15,47,14.80
2018,09,17,15,48,14.80
2018,09,17,15,49,14.80
2018,09,17,15,50,14.80
2018,09,17,15,51,14.90
2018,09,17,15,52,14.90
2018,09,17,15,53,14.90
2018,09,17,15,54,14.90
2018,09,17,15,55,14.90
2018,09,17,15,56,14.90
2018,09,17,15,57,14.80
2018,09,17,15,58,14.80
2018,09,17,15,59,14.80
2018,09,17,16,00,14.80
2018,09,17,16,01,14.80
2018,09,17,16,02,14.90
2018,09,17,16,03,14.90
2018,09,17,16,04,14.90
2018,09,17,16,05,14.90
2018,09,17,16,06,14.90
2018,09,17,16,07,14.90
2018,09,17,16,08,14.90
2018,09,17,16,09,14.90
2018,09,17,16,10,15.00
2018,09,17,16,11,15.00
2018,09,17,16,12,15.00
2018,09,17,16,13,15.00
2018,09,17,16,14,15.00
2018,09,17,16,15,15.00
2018,09,17,16,16,15.00
2018,09,17,16,17,15.00
2018,09,17,16,18,15.00
2018,09,17,16,19,15.00
2018,09,17,16,20,15.00
2018,09,17,16,21,15.10
2018,09,17,16,22,15.20
2018,09,17,16,23,15.20
2018,09,17,16,24,15.30
2018,09,17,16,25,15.30
2018,09,17,16,26,15.30
2018,09,17,16,27,15.40
2018,09,17,16,28,15.40
2018,09,17,16,29,15.40
2018,09,17,16,30,15.30
2018,09,17,16,31,15.30
2018,09,17,16,32,15.30
2018,09,17,16,33,15.20
2018,09,17,16,34,15.20
2018,09,17,16,35,15.20
2018,09,17,16,36,15.20
2018,09,17,16,37,15.20
2018,09,17,16,38,15.20
2018,09,17,16,39,15.20
2018,09,17,16,40,15.20
2018,09,17,16,41,15.20
2018,09,17,16,42,15.20
2018,09,17,16,43,15.20
2018,09,17,16,44,15.20
2018,09,17,16,45,15.20
2018,09,17,16,46,15.20
2018,09,17,16,47,15.20
2018,09,17,16,48,15.20
2018,09,17,16,49,15.20
2018,09,17,16,50,15.20
2018,09,17,16,51,15.20
2018,09,17,16,52,15.20
2018,09,17,16,53,15.20
2018,09,17,16,54,15.20
2018,09,17,16,55,15.10
2018,09,17,16,56,15.10
2018,09,17,16,57,15.00
2018,09,17,16,58,15.00
2018,09,17,16,59,15.00
2018,09,17,17,00,15.00
2018,09,17,17,01,15.00
2018,09,17,17,02,15.00
2018,09,17,17,03,15.00
2018,09,17,17,04,15.00
2018,09,17,17,05,15.00
2018,09,17,17,06,15.00
2018,09,17,17,07,15.00
2018,09,17,17,08,15.00
2018,09,17,17,09,15.00
2018,09,17,17,10,15.00
2018,09,17,17,11,15.00
2018,09,17,17,12,15.00
2018,09,17,17,13,15.00
2018,09,17,17,14,15.00
2018,09,17,17,15,15.00
2018,09,17,17,16,15.00
2018,09,17,17,17,15.00
2018,09,17,17,18,15.00
2018,09,17,17,19,15.00
2018,09,17,17,20,15.10
2018,09,17,17,21,15.10
2018,09,17,17,22,15.10
2018,09,17,17,23,15.20
2018,09,17,17,24,15.20
2018,09,17,17,25,15.10
2018,09,17,17,26,15.10
2018,09,17,17,27,15.10
2018,09,17,17,28,15.00
2018,09,17,17,29,15.00
2018,09,17,17,30,15.00
2018,09,17,17,31,15.00
2018,09,17,17,32,15.00
2018,09,17,17,33,15.00
2018,09,17,17,34,15.00
2018,09,17,17,35,15.00
2018,09,17,17,36,15.00
2018,09,17,17,37,15.00
2018,09,17,17,38,15.00
2018,09,17,17,39,15.00
2018,09,17,17,40,15.00
2018,09,17,17,41,15.00
2018,09,17,17,42,15.00
2018,09,17,17,43,15.00